When you browse on this site, cookies collect data to enhance your experience and personalize the content and advertising you see.
Visit our Privacy Policy to learn more. By continuing to use the site, you agree to this use of cookies and data.
  • In Österreich
  • Länderverzeichnis
  • Für 7 Tage
  • Wassertemperatur
  • Wetterkarte
  • News
  • Widgets
  • user-avatar
    Anmelden

    Stündliche Wetter Pabna

    Heute, 28 Mai, Donnerstag

    Zeit Temperatur Niederschläge Wind Luftdruck Luftfeuchtigkeit
    00:00 +32°C° 0 mm 5 m/S 751 mmHg 77%
    01:00 +32°C° 0 mm 4 m/S 751 mmHg 78%
    02:00 +30°C° 0 mm 3 m/S 750 mmHg 79%
    03:00 +30°C° 0 mm 2 m/S 750 mmHg 80%
    04:00 +30°C° 0 mm 3 m/S 750 mmHg 80%
    05:00 +30°C° 0 mm 3 m/S 750 mmHg 80%
    06:00 +29°C° 0 mm 5 m/S 751 mmHg 75%
    07:00 +30°C° 0 mm 5 m/S 752 mmHg 72%
    08:00 +30°C° 0 mm 4 m/S 752 mmHg 69%
    09:00 +32°C° 0 mm 4 m/S 753 mmHg 67%
    10:00 +33°C° 0.1 mm 4 m/S 753 mmHg 65%
    11:00 +33°C° 0.1 mm 4 m/S 752 mmHg 64%
    12:00 +34°C° 0 mm 3 m/S 752 mmHg 58%
    13:00 +35°C° 0.3 mm 3 m/S 751 mmHg 56%
    14:00 +36°C° 0.3 mm 3 m/S 751 mmHg 55%
    15:00 +36°C° 0.3 mm 3 m/S 750 mmHg 54%
    16:00 +36°C° 0 mm 3 m/S 749 mmHg 55%
    17:00 +36°C° 0 mm 3 m/S 749 mmHg 56%
    18:00 +36°C° 0 mm 3 m/S 749 mmHg 57%
    19:00 +35°C° 0.2 mm 3 m/S 749 mmHg 61%
    20:00 +34°C° 0.2 mm 3 m/S 750 mmHg 66%
    21:00 +33°C° 0.2 mm 3 m/S 751 mmHg 71%
    22:00 +31°C° 0.1 mm 3 m/S 751 mmHg 73%
    23:00 +32°C° 0.1 mm 4 m/S 751 mmHg 76%

    Morgen, 29 Mai, Freitag

    Zeit Temperatur Niederschläge Wind Luftdruck Luftfeuchtigkeit
    00:00 +32°C° 0.1 mm 4 m/S 751 mmHg 78%
    01:00 +30°C° 2.8 mm 5 m/S 751 mmHg 79%
    02:00 +29°C° 2.8 mm 7 m/S 750 mmHg 81%
    03:00 +29°C° 2.8 mm 8 m/S 750 mmHg 82%
    04:00 +29°C° 0 mm 6 m/S 750 mmHg 82%
    05:00 +29°C° 0 mm 4 m/S 751 mmHg 82%
    06:00 +30°C° 0 mm 1 m/S 751 mmHg 83%
    07:00 +28°C° 4.6 mm 5 m/S 752 mmHg 83%
    08:00 +27°C° 4.6 mm 9 m/S 753 mmHg 84%
    09:00 +24°C° 4.6 mm 12 m/S 754 mmHg 84%
    10:00 +27°C° 2.7 mm 9 m/S 753 mmHg 76%
    11:00 +29°C° 2.7 mm 7 m/S 753 mmHg 68%
    12:00 +32°C° 2.7 mm 4 m/S 752 mmHg 61%
    13:00 +34°C° 0 mm 3 m/S 751 mmHg 58%
    14:00 +35°C° 0 mm 3 m/S 750 mmHg 55%
    15:00 +36°C° 0 mm 3 m/S 750 mmHg 53%
    16:00 +35°C° 0 mm 4 m/S 749 mmHg 57%
    17:00 +35°C° 0 mm 4 m/S 749 mmHg 62%
    18:00 +34°C° 0 mm 4 m/S 749 mmHg 66%
    19:00 +33°C° 0.5 mm 5 m/S 750 mmHg 72%
    20:00 +32°C° 0.5 mm 5 m/S 750 mmHg 77%
    21:00 +30°C° 0.5 mm 5 m/S 751 mmHg 82%
    22:00 +29°C° 0.6 mm 5 m/S 751 mmHg 82%
    23:00 +29°C° 0.6 mm 4 m/S 751 mmHg 82%

    übermorgen, 30 Mai, Samstag

    Zeit Temperatur Niederschläge Wind Luftdruck Luftfeuchtigkeit
    00:00 +29°C° 0.6 mm 4 m/S 751 mmHg 83%
    01:00 +28°C° 0 mm 3 m/S 751 mmHg 83%
    02:00 +28°C° 0 mm 2 m/S 751 mmHg 83%
    03:00 +28°C° 0 mm 1 m/S 752 mmHg 83%
    04:00 +28°C° 0 mm 2 m/S 752 mmHg 84%
    05:00 +28°C° 0 mm 2 m/S 752 mmHg 85%
    06:00 +28°C° 0 mm 3 m/S 752 mmHg 86%
    07:00 +29°C° 0 mm 3 m/S 753 mmHg 82%
    08:00 +31°C° 0 mm 3 m/S 753 mmHg 77%
    09:00 +33°C° 0 mm 3 m/S 753 mmHg 73%
    10:00 +33°C° 0.6 mm 3 m/S 753 mmHg 72%
    11:00 +34°C° 0.6 mm 2 m/S 753 mmHg 70%
    12:00 +34°C° 0.6 mm 2 m/S 752 mmHg 69%
    13:00 +36°C° 0 mm 3 m/S 752 mmHg 60%
    14:00 +36°C° 0 mm 3 m/S 751 mmHg 58%
    15:00 +37°C° 0 mm 3 m/S 751 mmHg 57%
    16:00 +36°C° 0.4 mm 2 m/S 750 mmHg 60%
    17:00 +36°C° 0.4 mm 2 m/S 750 mmHg 63%
    18:00 +35°C° 0.4 mm 1 m/S 750 mmHg 66%
    19:00 +35°C° 0.6 mm 2 m/S 750 mmHg 70%
    20:00 +34°C° 0.6 mm 3 m/S 751 mmHg 74%
    21:00 +33°C° 0.6 mm 4 m/S 751 mmHg 78%
    22:00 +32°C° 0 mm 4 m/S 751 mmHg 80%
    23:00 +32°C° 0 mm 4 m/S 752 mmHg 82%

    31 Mai, Sonntag

    Zeit Temperatur Niederschläge Wind Luftdruck Luftfeuchtigkeit
    00:00 +31°C° 0 mm 3 m/S 752 mmHg 84%
    01:00 +30°C° 0.3 mm 3 m/S 752 mmHg 86%
    02:00 +30°C° 0.3 mm 3 m/S 751 mmHg 87%
    03:00 +30°C° 0.3 mm 3 m/S 751 mmHg 88%
    04:00 +30°C° 0 mm 3 m/S 752 mmHg 89%
    05:00 +30°C° 0 mm 3 m/S 752 mmHg 89%
    06:00 +30°C° 0 mm 2 m/S 752 mmHg 89%
    07:00 +31°C° 0 mm 3 m/S 753 mmHg 84%
    08:00 +33°C° 0 mm 3 m/S 753 mmHg 79%
    09:00 +35°C° 0 mm 4 m/S 754 mmHg 73%
    10:00 +35°C° 0 mm 4 m/S 753 mmHg 71%
    11:00 +35°C° 0 mm 4 m/S 753 mmHg 69%
    12:00 +36°C° 0 mm 4 m/S 752 mmHg 67%
    13:00 +36°C° 0.1 mm 4 m/S 752 mmHg 65%
    14:00 +37°C° 0.1 mm 4 m/S 751 mmHg 62%
    15:00 +37°C° 0.1 mm 4 m/S 750 mmHg 60%
    16:00 +37°C° 0.2 mm 3 m/S 750 mmHg 62%
    17:00 +37°C° 0.2 mm 3 m/S 750 mmHg 63%
    18:00 +37°C° 0.2 mm 3 m/S 749 mmHg 65%
    19:00 +36°C° 0 mm 4 m/S 750 mmHg 69%
    20:00 +34°C° 0 mm 5 m/S 750 mmHg 73%
    21:00 +33°C° 0 mm 5 m/S 751 mmHg 77%
    22:00 +33°C° 0.3 mm 5 m/S 751 mmHg 80%
    23:00 +32°C° 0.3 mm 5 m/S 751 mmHg 83%

    1 Juni, Montag

    Zeit Temperatur Niederschläge Wind Luftdruck Luftfeuchtigkeit
    00:00 +30°C° 0.3 mm 4 m/S 751 mmHg 86%
    01:00 +30°C° 0.1 mm 4 m/S 751 mmHg 87%
    02:00 +30°C° 0.1 mm 4 m/S 751 mmHg 87%
    03:00 +30°C° 0.1 mm 4 m/S 751 mmHg 88%
    04:00 +30°C° 0.3 mm 4 m/S 751 mmHg 88%
    05:00 +30°C° 0.3 mm 4 m/S 751 mmHg 88%
    06:00 +30°C° 0.3 mm 4 m/S 751 mmHg 88%
    07:00 +33°C° 0 mm 4 m/S 752 mmHg 81%
    08:00 +34°C° 0 mm 5 m/S 752 mmHg 75%
    09:00 +35°C° 0 mm 5 m/S 752 mmHg 69%
    10:00 +37°C° 0 mm 5 m/S 752 mmHg 62%
    11:00 +38°C° 0 mm 4 m/S 751 mmHg 56%
    12:00 +41°C° 0 mm 4 m/S 751 mmHg 49%
    13:00 +42°C° 0 mm 4 m/S 750 mmHg 45%
    14:00 +42°C° 0 mm 4 m/S 749 mmHg 42%
    15:00 +43°C° 0 mm 3 m/S 749 mmHg 39%
    16:00 +42°C° 0 mm 3 m/S 748 mmHg 43%
    17:00 +41°C° 0 mm 4 m/S 748 mmHg 48%
    18:00 +40°C° 0 mm 4 m/S 747 mmHg 53%
    19:00 +37°C° 0.2 mm 5 m/S 748 mmHg 60%
    20:00 +36°C° 0.2 mm 6 m/S 748 mmHg 66%
    21:00 +34°C° 0.2 mm 7 m/S 749 mmHg 73%
    22:00 +34°C° 0 mm 6 m/S 749 mmHg 76%
    23:00 +33°C° 0 mm 5 m/S 749 mmHg 78%

    2 Juni, Dienstag

    Zeit Temperatur Niederschläge Wind Luftdruck Luftfeuchtigkeit
    00:00 +33°C° 0 mm 3 m/S 750 mmHg 80%
    01:00 +32°C° 0 mm 4 m/S 749 mmHg 81%
    02:00 +32°C° 0 mm 4 m/S 749 mmHg 82%
    03:00 +32°C° 0 mm 5 m/S 748 mmHg 82%
    04:00 +32°C° 0 mm 5 m/S 749 mmHg 83%
    05:00 +32°C° 0 mm 5 m/S 749 mmHg 83%
    06:00 +32°C° 0 mm 5 m/S 749 mmHg 84%
    07:00 +33°C° 0 mm 5 m/S 749 mmHg 78%
    08:00 +34°C° 0 mm 5 m/S 750 mmHg 72%
    09:00 +36°C° 0 mm 5 m/S 750 mmHg 67%
    10:00 +37°C° 0 mm 5 m/S 750 mmHg 58%
    11:00 +40°C° 0 mm 4 m/S 750 mmHg 49%
    12:00 +42°C° 0 mm 4 m/S 749 mmHg 40%
    13:00 +43°C° 0 mm 3 m/S 748 mmHg 37%
    14:00 +44°C° 0 mm 3 m/S 748 mmHg 34%
    15:00 +45°C° 0 mm 3 m/S 747 mmHg 31%
    16:00 +41°C° 1.1 mm 5 m/S 747 mmHg 42%
    17:00 +37°C° 1.1 mm 8 m/S 747 mmHg 53%
    18:00 +32°C° 1.1 mm 10 m/S 746 mmHg 64%
    19:00 +32°C° 0.9 mm 8 m/S 747 mmHg 63%
    20:00 +32°C° 0.9 mm 5 m/S 748 mmHg 62%
    21:00 +31°C° 0.9 mm 3 m/S 748 mmHg 61%
    22:00 +31°C° 0.2 mm 3 m/S 748 mmHg 63%
    23:00 +32°C° 0.2 mm 4 m/S 748 mmHg 66%
    Mehr zeigen